| time (UTC) | temp F | wind direction | speed MPH | gust MPH | rain 1hr in | rain 24hr in | rain mn in | humidity % | barometer mb |
| 20260504215100 | 72 | 221 | 5.0 | 16.0 | 0.00 | 0.00 | 0.00 | 46 | 1002.6 |
| 20260504214536 | 72 | 265 | 4.0 | 15.0 | 0.00 | 0.00 | 0.00 | 46 | 1002.6 |
| 20260504214046 | 72 | 178 | 6.0 | 20.0 | 0.00 | 0.00 | 0.00 | 46 | 1002.5 |
| 20260504213554 | 73 | 190 | 6.0 | 20.0 | 0.00 | 0.00 | 0.00 | 45 | 1002.5 |
| 20260504212542 | 73 | 188 | 6.0 | 21.0 | 0.00 | 0.00 | 0.00 | 45 | 1002.5 |
| 20260504212054 | 73 | 271 | 5.0 | 21.0 | 0.00 | 0.00 | 0.00 | 46 | 1002.5 |
| 20260504211020 | 72 | 227 | 8.0 | 16.0 | 0.00 | 0.00 | 0.00 | 47 | 1002.4 |
| 20260504210135 | 72 | 194 | 6.0 | 14.0 | 0.00 | 0.00 | 0.00 | 48 | 1002.4 |
| 20260504205519 | 72 | 216 | 5.0 | 18.0 | 0.00 | 0.00 | 0.00 | 49 | 1002.8 |
| 20260504205025 | 72 | 175 | 8.0 | 18.0 | 0.00 | 0.00 | 0.00 | 48 | 1002.8 |
| 20260504204026 | 72 | 219 | 9.0 | 20.0 | 0.00 | 0.00 | 0.00 | 50 | 1003.2 |
| 20260504203547 | 72 | 213 | 10.0 | 20.0 | 0.00 | 0.00 | 0.00 | 50 | 1003.2 |
| 20260504202527 | 71 | 230 | 5.0 | 19.0 | 0.00 | 0.00 | 0.00 | 51 | 1003.2 |
| 20260504202030 | 71 | 169 | 10.0 | 19.0 | 0.00 | 0.00 | 0.00 | 50 | 1003.2 |
| 20260504201546 | 71 | 201 | 5.0 | 18.0 | 0.00 | 0.00 | 0.00 | 50 | 1003.2 |
| 20260504200614 | 72 | 255 | 11.0 | 21.0 | 0.00 | 0.00 | 0.00 | 49 | 1003.5 |
| 20260504200123 | 72 | 198 | 8.0 | 22.0 | 0.00 | 0.00 | 0.00 | 49 | 1003.5 |
| 20260504195607 | 73 | 204 | 8.0 | 21.0 | 0.00 | 0.00 | 0.00 | 48 | 1003.5 |
| 20260504195116 | 73 | 188 | 11.0 | 21.0 | 0.00 | 0.00 | 0.00 | 48 | 1003.5 |
| 20260504194519 | 73 | 200 | 7.0 | 22.0 | 0.00 | 0.00 | 0.00 | 49 | 1003.5 |
| 20260504194042 | 73 | 194 | 7.0 | 17.0 | 0.00 | 0.00 | 0.00 | 48 | 1003.2 |
| 20260504193551 | 73 | 223 | 9.0 | 16.0 | 0.00 | 0.00 | 0.00 | 48 | 1003.2 |
| 20260504193057 | 73 | 175 | 6.0 | 20.0 | 0.00 | 0.00 | 0.00 | 48 | 1003.2 |
| 20260504192039 | 73 | 195 | 9.0 | 22.0 | 0.00 | 0.00 | 0.00 | 48 | 1003.2 |
| 20260504191040 | 73 | 190 | 10.0 | 17.0 | 0.00 | 0.00 | 0.00 | 48 | 1003.2 |
| 20260504190027 | 73 | 205 | 8.0 | 17.0 | 0.00 | 0.00 | 0.00 | 49 | 1003.2 |
| 20260504185535 | 72 | 257 | 6.0 | 17.0 | 0.00 | 0.00 | 0.00 | 50 | 1003.2 |
| 20260504184531 | 71 | 161 | 6.0 | 17.0 | 0.00 | 0.00 | 0.00 | 50 | 1003.2 |
| 20260504184052 | 71 | 224 | 9.0 | 17.0 | 0.00 | 0.00 | 0.00 | 50 | 1003.3 |
| 20260504183545 | 72 | 254 | 7.0 | 13.0 | 0.00 | 0.00 | 0.00 | 49 | 1003.3 |
| 20260504183037 | 72 | 213 | 4.0 | 15.0 | 0.00 | 0.00 | 0.00 | 50 | 1003.3 |
| 20260504182555 | 72 | 250 | 6.0 | 15.0 | 0.00 | 0.00 | 0.00 | 52 | 1003.5 |
| 20260504181534 | 71 | 196 | 5.0 | 18.0 | 0.00 | 0.00 | 0.00 | 51 | 1003.5 |
| 20260504181053 | 71 | 200 | 5.0 | 18.0 | 0.00 | 0.00 | 0.00 | 51 | 1003.6 |
| 20260504180031 | 71 | 228 | 7.0 | 18.0 | 0.00 | 0.00 | 0.00 | 52 | 1003.6 |
| 20260504175039 | 70 | 247 | 6.0 | 17.0 | 0.00 | 0.00 | 0.00 | 51 | 1003.7 |
| 20260504174557 | 70 | 229 | 6.0 | 15.0 | 0.00 | 0.00 | 0.00 | 52 | 1003.7 |
| 20260504174105 | 70 | 234 | 5.0 | 14.0 | 0.00 | 0.00 | 0.00 | 53 | 1003.8 |
| 20260504173613 | 70 | 211 | 5.0 | 15.0 | 0.00 | 0.00 | 0.00 | 53 | 1003.8 |
| 20260504173026 | 69 | 252 | 5.0 | 15.0 | 0.00 | 0.00 | 0.00 | 54 | 1003.8 |
| 20260504172538 | 69 | 219 | 6.0 | 8.0 | 0.00 | 0.00 | 0.00 | 54 | 1004.0 |
| 20260504171527 | 69 | 186 | 7.0 | 13.0 | 0.00 | 0.00 | 0.00 | 54 | 1004.0 |
| 20260504171044 | 69 | 200 | 6.0 | 10.0 | 0.00 | 0.00 | 0.00 | 55 | 1004.2 |
| 20260504151047 | 63 | 198 | 5.0 | 13.0 | 0.00 | 0.00 | 0.00 | 60 | 1005.2 |
| 20260504150555 | 63 | 167 | 3.0 | 12.0 | 0.00 | 0.00 | 0.00 | 60 | 1005.2 |
| 20260504140528 | 60 | 186 | 5.0 | 12.0 | 0.00 | 0.00 | 0.00 | 61 | 1005.5 |
| 20260504130530 | 56 | 214 | 4.0 | 11.0 | 0.00 | 0.00 | 0.00 | 63 | 1005.8 |
| 20260504120125 | 50 | 208 | 3.0 | 9.0 | 0.00 | 0.00 | 0.00 | 67 | 1006.1 |
| 20260504110535 | 47 | 162 | 2.0 | 4.0 | 0.00 | 0.00 | 0.00 | 69 | 1005.7 |
| 20260504081550 | 51 | 198 | 3.0 | 6.0 | 0.00 | 0.00 | 0.00 | 62 | 1006.8 |
| 20260504081054 | 51 | 179 | 2.0 | 6.0 | 0.00 | 0.00 | 0.00 | 62 | 1006.9 |
| 20260504080612 | 51 | 199 | 2.0 | 5.0 | 0.00 | 0.00 | 0.00 | 62 | 1006.9 |
| 20260504050522 | 52 | 188 | 3.0 | 4.0 | 0.00 | 0.00 | 0.00 | 60 | 1008.7 |
| 20260504050018 | 52 | 188 | 2.0 | 4.0 | 0.00 | 0.00 | 0.00 | 61 | 1008.7 |
| 20260504045556 | 51 | 188 | 1.0 | 4.0 | 0.00 | 0.00 | 0.00 | 61 | 1008.7 |
| 20260504045023 | 51 | 188 | 2.0 | 3.0 | 0.00 | 0.00 | 0.00 | 62 | 1008.7 |
| 20260504044524 | 51 | 188 | 1.0 | 2.0 | 0.00 | 0.00 | 0.00 | 63 | 1008.7 |
| 20260504044047 | 51 | 188 | 1.0 | 6.0 | 0.00 | 0.00 | 0.00 | 63 | 1008.9 |
| 20260504043537 | 51 | 188 | 3.0 | 6.0 | 0.00 | 0.00 | 0.00 | 63 | 1008.9 |
| 20260504043021 | 51 | 194 | 1.0 | 5.0 | 0.00 | 0.00 | 0.00 | 64 | 1008.9 |
| 20260504042529 | 51 | 194 | 1.0 | 4.0 | 0.00 | 0.00 | 0.00 | 64 | 1009.0 |
| 20260504042026 | 51 | 194 | 2.0 | 5.0 | 0.00 | 0.00 | 0.00 | 64 | 1009.0 |
| 20260504041540 | 51 | 193 | 2.0 | 5.0 | 0.00 | 0.00 | 0.00 | 64 | 1009.0 |
| 20260504041021 | 51 | 193 | 1.0 | 4.0 | 0.00 | 0.00 | 0.00 | 64 | 1009.1 |
| 20260504040542 | 50 | 193 | 2.0 | 4.0 | 0.00 | 0.00 | 0.00 | 64 | 1009.1 |
| 20260504040051 | 50 | 193 | 1.0 | 4.0 | 0.00 | 0.00 | 0.00 | 64 | 1009.1 |
| 20260504035600 | 50 | 193 | 1.0 | 3.0 | 0.00 | 0.00 | 0.00 | 64 | 1009.2 |
| 20260504035104 | 50 | 193 | 1.0 | 4.0 | 0.00 | 0.00 | 0.00 | 64 | 1009.2 |
| 20260504034540 | 50 | 193 | 2.0 | 5.0 | 0.00 | 0.00 | 0.00 | 64 | 1009.2 |
| 20260504034055 | 50 | 207 | 1.0 | 5.0 | 0.00 | 0.00 | 0.00 | 64 | 1009.5 |
| 20260504033600 | 50 | 207 | 1.0 | 2.0 | 0.00 | 0.00 | 0.00 | 64 | 1009.5 |
| 20260504032539 | 50 | 207 | 0.0 | 0.0 | 0.00 | 0.00 | 0.00 | 64 | 1009.6 |
| 20260504032023 | 50 | 207 | 0.0 | 2.0 | 0.00 | 0.00 | 0.00 | 64 | 1009.6 |
| 20260504031536 | 50 | 207 | 0.0 | 3.0 | 0.00 | 0.00 | 0.00 | 64 | 1009.6 |
| 20260504031035 | 50 | 207 | 0.0 | 1.0 | 0.00 | 0.00 | 0.00 | 64 | 1009.6 |
| 20260504030553 | 50 | 207 | 0.0 | 1.0 | 0.00 | 0.00 | 0.00 | 64 | 1009.6 |
| 20260504025525 | 50 | 207 | 1.0 | 3.0 | 0.00 | 0.00 | 0.00 | 63 | 1009.7 |
| 20260504025040 | 50 | 207 | 2.0 | 3.0 | 0.00 | 0.00 | 0.00 | 64 | 1009.7 |
| 20260504024550 | 50 | 207 | 1.0 | 3.0 | 0.00 | 0.00 | 0.00 | 64 | 1009.7 |
| 20260504023517 | 49 | 207 | 1.0 | 1.0 | 0.00 | 0.00 | 0.00 | 64 | 1009.8 |
| 20260504023041 | 49 | 207 | 0.0 | 3.0 | 0.00 | 0.00 | 0.00 | 64 | 1009.8 |
| 20260504022538 | 49 | 207 | 1.0 | 2.0 | 0.00 | 0.00 | 0.00 | 63 | 1009.8 |
| 20260504022110 | 49 | 207 | 0.0 | 2.0 | 0.00 | 0.00 | 0.00 | 63 | 1009.8 |
| 20260504021514 | 49 | 207 | 1.0 | 2.0 | 0.00 | 0.00 | 0.00 | 63 | 1009.8 |
| 20260504020519 | 50 | 207 | 1.0 | 3.0 | 0.00 | 0.00 | 0.00 | 62 | 1009.7 |
| 20260504020025 | 50 | 207 | 0.0 | 1.0 | 0.00 | 0.00 | 0.00 | 62 | 1009.7 |
| 20260504015538 | 50 | 207 | 0.0 | 3.0 | 0.00 | 0.00 | 0.00 | 62 | 1010.0 |
| 20260504015031 | 50 | 207 | 1.0 | 3.0 | 0.00 | 0.00 | 0.00 | 62 | 1010.0 |
| 20260504014543 | 50 | 207 | 0.0 | 2.0 | 0.00 | 0.00 | 0.00 | 62 | 1010.0 |
| 20260504013533 | 50 | 207 | 1.0 | 3.0 | 0.00 | 0.00 | 0.00 | 61 | 1010.0 |
| 20260504013028 | 50 | 207 | 2.0 | 4.0 | 0.00 | 0.00 | 0.00 | 61 | 1010.0 |
| 20260504012553 | 50 | 207 | 1.0 | 4.0 | 0.00 | 0.00 | 0.00 | 61 | 1009.8 |
| 20260504012045 | 51 | 207 | 0.0 | 3.0 | 0.00 | 0.00 | 0.00 | 61 | 1009.8 |
| 20260504011029 | 51 | 207 | 0.0 | 2.0 | 0.00 | 0.00 | 0.00 | 60 | 1009.7 |
| 20260504010548 | 51 | 207 | 1.0 | 2.0 | 0.00 | 0.00 | 0.00 | 60 | 1009.7 |
| 20260504005525 | 51 | 207 | 0.0 | 0.0 | 0.00 | 0.00 | 0.00 | 58 | 1009.7 |
| 20260504005048 | 51 | 207 | 0.0 | 0.0 | 0.00 | 0.00 | 0.00 | 58 | 1009.7 |
| 20260504004032 | 51 | 207 | 0.0 | 0.0 | 0.00 | 0.00 | 0.00 | 57 | 1009.7 |
| 20260504003605 | 51 | 207 | 0.0 | 0.0 | 0.00 | 0.00 | 0.00 | 57 | 1009.7 |
| 20260504003137 | 51 | 207 | 0.0 | 0.0 | 0.00 | 0.00 | 0.00 | 57 | 1009.7 |
| 20260504002613 | 52 | 207 | 0.0 | 3.0 | 0.00 | 0.00 | 0.00 | 56 | 1009.9 |
| 20260504002021 | 52 | 207 | 1.0 | 3.0 | 0.00 | 0.00 | 0.00 | 56 | 1009.9 |
| 20260504001546 | 52 | 207 | 0.0 | 4.0 | 0.00 | 0.00 | 0.00 | 56 | 1009.9 |
| 20260504000527 | 52 | 192 | 2.0 | 6.0 | 0.00 | 0.00 | 0.00 | 55 | 1010.1 |
| 20260504000113 | 52 | 193 | 2.0 | 7.0 | 0.00 | 0.00 | 0.00 | 55 | 1010.1 |
| 20260503235519 | 52 | 219 | 2.0 | 7.0 | 0.00 | 0.00 | 0.00 | 55 | 1010.7 |
| 20260503235057 | 52 | 204 | 1.0 | 11.0 | 0.00 | 0.00 | 0.00 | 54 | 1010.7 |
| 20260503234023 | 52 | 173 | 5.0 | 16.0 | 0.00 | 0.00 | 0.00 | 53 | 1010.7 |
| 20260503233540 | 53 | 230 | 5.0 | 16.0 | 0.00 | 0.00 | 0.00 | 52 | 1010.7 |
| 20260503233108 | 53 | 205 | 7.0 | 13.0 | 0.00 | 0.00 | 0.00 | 51 | 1010.7 |
| 20260503232636 | 53 | 189 | 3.0 | 17.0 | 0.00 | 0.00 | 0.00 | 50 | 1010.6 |
| 20260503232029 | 53 | 183 | 6.0 | 17.0 | 0.00 | 0.00 | 0.00 | 49 | 1010.6 |
| 20260503231022 | 54 | 196 | 5.0 | 15.0 | 0.00 | 0.00 | 0.00 | 47 | 1010.6 |
| 20260503230551 | 55 | 182 | 8.0 | 15.0 | 0.00 | 0.00 | 0.00 | 45 | 1010.6 |
| 20260503225538 | 57 | 234 | 4.0 | 15.0 | 0.00 | 0.00 | 0.00 | 41 | 1010.1 |
| 20260503224525 | 58 | 187 | 5.0 | 16.0 | 0.00 | 0.00 | 0.00 | 38 | 1010.1 |
| 20260503224054 | 58 | 179 | 5.0 | 16.0 | 0.00 | 0.00 | 0.00 | 37 | 1010.2 |
| 20260503223522 | 58 | 227 | 5.0 | 14.0 | 0.00 | 0.00 | 0.00 | 37 | 1010.2 |
| 20260503222531 | 58 | 207 | 4.0 | 15.0 | 0.00 | 0.00 | 0.00 | 37 | 1010.1 |
| 20260503221525 | 59 | 255 | 4.0 | 11.0 | 0.00 | 0.00 | 0.00 | 37 | 1010.1 |
| 20260503221036 | 59 | 196 | 5.0 | 15.0 | 0.00 | 0.00 | 0.00 | 36 | 1010.1 |
| 20260503220019 | 59 | 219 | 5.0 | 17.0 | 0.00 | 0.00 | 0.00 | 37 | 1010.1 |
| 20260503215536 | 59 | 242 | 5.0 | 9.0 | 0.00 | 0.00 | 0.00 | 37 | 1010.2 |